Time,TemperatureF,DewpointF,PressureIn,WindDirection,WindDirectionDegrees,WindSpeedMPH,WindSpeedGustMPH,Humidity,HourlyPrecipIn,Conditions,Clouds,dailyrainin,SoftwareType,DateUTC
2013-06-12 00:03:00,79.0,75.0,29.88,SE,143,0.0,0.0,88,0.00,,,0.00,,2013-06-12 05:03:00,
2013-06-12 00:12:00,79.0,75.0,29.88,SE,143,0.0,0.0,88,0.00,,,0.00,,2013-06-12 05:12:00,
2013-06-12 00:22:00,79.0,75.0,29.88,SE,143,0.0,0.0,88,0.00,,,0.00,,2013-06-12 05:22:00,
2013-06-12 00:32:00,79.0,75.0,29.88,SSE,153,0.0,0.0,87,0.00,,,0.00,,2013-06-12 05:32:00,
2013-06-12 00:42:00,79.0,74.0,29.88,SSE,153,0.0,0.0,86,0.00,,,0.00,,2013-06-12 05:42:00,
2013-06-12 00:52:00,79.0,74.0,29.88,SSE,153,0.0,0.0,86,0.00,,,0.00,,2013-06-12 05:52:00,
2013-06-12 01:02:00,79.0,74.0,29.88,SSE,153,0.0,0.0,86,0.00,,,0.00,,2013-06-12 06:02:00,
2013-06-12 01:12:00,79.0,74.0,29.88,SSE,153,0.0,0.0,86,0.00,,,0.00,,2013-06-12 06:12:00,
2013-06-12 01:22:00,79.0,74.0,29.87,SSE,153,0.0,0.0,86,0.00,,,0.00,,2013-06-12 06:22:00,
2013-06-12 01:32:00,78.0,74.0,29.88,SSE,152,0.0,0.0,87,0.00,,,0.00,,2013-06-12 06:32:00,
2013-06-12 01:42:00,78.0,74.0,29.88,SSE,152,0.0,0.0,87,0.00,,,0.00,,2013-06-12 06:42:00,
2013-06-12 01:52:00,78.0,74.0,29.88,SSE,152,0.0,0.0,87,0.00,,,0.00,,2013-06-12 06:52:00,
2013-06-12 02:02:00,78.0,74.0,29.88,SSE,152,0.0,0.0,88,0.00,,,0.00,,2013-06-12 07:02:00,
2013-06-12 02:12:00,78.0,74.0,29.88,SSE,152,0.0,0.0,89,0.00,,,0.00,,2013-06-12 07:12:00,
2013-06-12 02:22:00,78.0,74.0,29.88,SSE,152,0.0,0.0,89,0.00,,,0.00,,2013-06-12 07:22:00,
2013-06-12 02:33:00,77.0,74.0,29.88,SSE,152,0.0,0.0,89,0.00,,,0.00,,2013-06-12 07:33:00,
2013-06-12 02:43:00,77.0,74.0,29.88,SSE,152,0.0,0.0,89,0.00,,,0.00,,2013-06-12 07:43:00,
2013-06-12 02:53:00,77.0,74.0,29.88,SSE,152,1.0,1.0,90,0.00,,,0.00,,2013-06-12 07:53:00,
2013-06-12 03:02:00,77.0,74.0,29.88,SSE,152,0.0,0.0,90,0.00,,,0.00,,2013-06-12 08:02:00,
2013-06-12 03:12:00,77.0,74.0,29.88,SSE,152,0.0,0.0,90,0.00,,,0.00,,2013-06-12 08:12:00,
2013-06-12 03:22:00,77.0,74.0,29.87,SSE,152,1.0,1.0,90,0.00,,,0.00,,2013-06-12 08:22:00,
2013-06-12 03:33:00,77.0,74.0,29.87,SSE,152,0.0,0.0,91,0.00,,,0.00,,2013-06-12 08:33:00,
2013-06-12 03:43:00,77.0,74.0,29.87,SSE,152,0.0,0.0,91,0.00,,,0.00,,2013-06-12 08:43:00,
2013-06-12 03:53:00,76.0,73.0,29.87,SSE,152,1.0,1.0,91,0.00,,,0.00,,2013-06-12 08:53:00,
2013-06-12 04:01:00,76.0,73.0,29.87,SSE,152,0.0,0.0,91,0.00,,,0.00,,2013-06-12 09:01:00,
2013-06-12 04:11:00,76.0,74.0,29.88,SSE,152,0.0,1.0,92,0.00,,,0.00,,2013-06-12 09:11:00,
2013-06-12 04:22:00,76.0,74.0,29.88,SSE,152,0.0,0.0,92,0.00,,,0.00,,2013-06-12 09:22:00,
2013-06-12 04:33:00,76.0,74.0,29.88,SSE,152,0.0,0.0,92,0.00,,,0.00,,2013-06-12 09:33:00,
2013-06-12 04:42:00,76.0,73.0,29.88,SSE,152,0.0,0.0,91,0.00,,,0.00,,2013-06-12 09:42:00,
2013-06-12 04:53:00,76.0,73.0,29.89,SSE,152,0.0,0.0,91,0.00,,,0.00,,2013-06-12 09:53:00,
2013-06-12 05:02:00,76.0,73.0,29.89,SSE,152,0.0,0.0,90,0.00,,,0.00,,2013-06-12 10:02:00,
2013-06-12 05:11:00,76.0,73.0,29.89,SSE,152,0.0,0.0,90,0.00,,,0.00,,2013-06-12 10:11:00,
2013-06-12 05:23:00,76.0,73.0,29.89,SSE,152,0.0,0.0,89,0.00,,,0.00,,2013-06-12 10:23:00,
2013-06-12 05:33:00,76.0,73.0,29.89,SSE,152,0.0,0.0,89,0.00,,,0.00,,2013-06-12 10:33:00,
2013-06-12 05:43:00,76.0,73.0,29.90,SSE,152,0.0,0.0,89,0.00,,,0.00,,2013-06-12 10:43:00,
2013-06-12 05:53:00,76.0,73.0,29.91,SSE,152,0.0,0.0,89,0.00,,,0.00,,2013-06-12 10:53:00,
2013-06-12 06:02:00,76.0,73.0,29.91,SSE,152,0.0,0.0,89,0.00,,,0.00,,2013-06-12 11:02:00,
2013-06-12 06:12:00,76.0,73.0,29.91,SSE,152,0.0,0.0,89,0.00,,,0.00,,2013-06-12 11:12:00,
2013-06-12 06:24:00,76.0,73.0,29.92,SSE,152,0.0,0.0,89,0.00,,,0.00,,2013-06-12 11:24:00,
2013-06-12 06:33:00,76.0,73.0,29.92,SSE,152,0.0,0.0,89,0.00,,,0.00,,2013-06-12 11:33:00,
2013-06-12 06:43:00,76.0,73.0,29.93,SSE,152,0.0,1.0,90,0.00,,,0.00,,2013-06-12 11:43:00,
2013-06-12 06:53:00,76.0,73.0,29.93,SSE,152,0.0,0.0,90,0.00,,,0.00,,2013-06-12 11:53:00,
2013-06-12 07:01:00,76.0,73.0,29.93,SSE,152,0.0,0.0,91,0.00,,,0.00,,2013-06-12 12:01:00,
2013-06-12 07:11:00,76.0,73.0,29.93,SSE,152,0.0,0.0,91,0.00,,,0.00,,2013-06-12 12:11:00,
2013-06-12 07:23:00,77.0,74.0,29.93,SSE,152,0.0,1.0,91,0.00,,,0.00,,2013-06-12 12:23:00,
2013-06-12 07:33:00,77.0,74.0,29.93,SSE,152,0.0,2.0,90,0.00,,,0.00,,2013-06-12 12:33:00,
2013-06-12 07:42:00,77.0,74.0,29.94,SSE,152,0.0,1.0,89,0.00,,,0.00,,2013-06-12 12:42:00,
2013-06-12 07:53:00,78.0,74.0,29.94,SSE,153,0.0,1.0,88,0.00,,,0.00,,2013-06-12 12:53:00,
2013-06-12 08:01:00,78.0,73.0,29.94,SSW,192,0.0,2.0,86,0.00,,,0.00,,2013-06-12 13:01:00,
2013-06-12 08:12:00,78.0,73.0,29.95,South,187,0.0,1.0,85,0.00,,,0.00,,2013-06-12 13:12:00,
2013-06-12 08:22:00,79.0,73.0,29.95,South,169,0.0,3.0,83,0.00,,,0.00,,2013-06-12 13:22:00,
2013-06-12 08:32:00,79.0,73.0,29.95,South,176,1.0,2.0,81,0.00,,,0.00,,2013-06-12 13:32:00,
2013-06-12 08:43:00,80.0,73.0,29.96,South,189,1.0,1.0,80,0.00,,,0.00,,2013-06-12 13:43:00,
2013-06-12 08:53:00,80.0,73.0,29.96,South,183,0.0,1.0,79,0.00,,,0.00,,2013-06-12 13:53:00,
2013-06-12 09:02:00,80.0,73.0,29.96,SW,215,1.0,2.0,80,0.00,,,0.00,,2013-06-12 14:02:00,
2013-06-12 09:11:00,80.0,73.0,29.96,SE,134,3.0,4.0,80,0.00,,,0.00,,2013-06-12 14:11:00,
2013-06-12 09:24:00,80.0,73.0,29.96,SE,134,3.0,4.0,80,0.00,,,0.00,,2013-06-12 14:24:00,
2013-06-12 09:33:00,80.0,73.0,29.96,South,184,3.0,3.0,79,0.00,,,0.00,,2013-06-12 14:33:00,
2013-06-12 09:43:00,80.0,73.0,29.96,South,184,3.0,3.0,79,0.00,,,0.00,,2013-06-12 14:43:00,
2013-06-12 09:53:00,80.0,73.0,29.96,South,184,3.0,3.0,79,0.00,,,0.00,,2013-06-12 14:53:00,
2013-06-12 10:01:00,80.0,73.0,29.96,South,184,3.0,3.0,79,0.00,,,0.00,,2013-06-12 15:01:00,
2013-06-12 12:12:00,89.0,73.0,29.91,SE,142,2.0,5.0,60,0.00,,,0.00,,2013-06-12 17:12:00,
2013-06-12 12:23:00,89.0,73.0,29.91,SE,142,2.0,5.0,60,0.00,,,0.00,,2013-06-12 17:23:00,
2013-06-12 12:33:00,89.0,73.0,29.91,SE,142,2.0,5.0,60,0.00,,,0.00,,2013-06-12 17:33:00,
2013-06-12 12:42:00,89.0,73.0,29.91,SE,142,2.0,5.0,60,0.00,,,0.00,,2013-06-12 17:42:00,
2013-06-12 12:52:00,89.0,73.0,29.91,SE,142,2.0,5.0,60,0.00,,,0.00,,2013-06-12 17:52:00,
2013-06-12 18:02:00,92.0,69.0,29.75,SSW,207,5.0,9.0,48,0.00,,,0.00,,2013-06-12 23:02:00,
2013-06-12 18:12:00,92.0,69.0,29.75,WNW,286,4.0,9.0,48,0.00,,,0.00,,2013-06-12 23:12:00,
2013-06-12 18:22:00,92.0,71.0,29.75,South,187,4.0,6.0,50,0.00,,,0.00,,2013-06-12 23:22:00,
2013-06-12 18:32:00,92.0,72.0,29.75,ESE,116,1.0,5.0,52,0.00,,,0.00,,2013-06-12 23:32:00,
2013-06-12 18:42:00,92.0,71.0,29.75,South,190,1.0,8.0,50,0.00,,,0.00,,2013-06-12 23:42:00,
2013-06-12 18:52:00,91.0,70.0,29.74,South,171,4.0,12.0,50,0.00,,,0.00,,2013-06-12 23:52:00,
2013-06-12 19:01:00,91.0,70.0,29.74,SW,215,4.0,6.0,51,0.00,,,0.00,,2013-06-13 00:01:00,
2013-06-12 19:12:00,91.0,70.0,29.75,SSW,209,1.0,5.0,51,0.00,,,0.00,,2013-06-13 00:12:00,
2013-06-12 19:22:00,90.0,70.0,29.75,SSE,148,5.0,5.0,52,0.00,,,0.00,,2013-06-13 00:22:00,
2013-06-12 19:32:00,90.0,71.0,29.75,SW,221,1.0,3.0,53,0.00,,,0.00,,2013-06-13 00:32:00,
2013-06-12 19:42:00,90.0,71.0,29.75,SSW,202,3.0,4.0,54,0.00,,,0.00,,2013-06-13 00:42:00,
2013-06-12 19:52:00,89.0,71.0,29.75,SSW,196,3.0,3.0,56,0.00,,,0.00,,2013-06-13 00:52:00,
2013-06-12 20:01:00,89.0,71.0,29.75,SSW,210,1.0,2.0,56,0.00,,,0.00,,2013-06-13 01:01:00,
2013-06-12 20:12:00,88.0,71.0,29.75,SSE,148,0.0,1.0,57,0.00,,,0.00,,2013-06-13 01:12:00,
2013-06-12 20:22:00,88.0,71.0,29.74,SE,136,2.0,2.0,58,0.00,,,0.00,,2013-06-13 01:22:00,
2013-06-12 20:32:00,87.0,71.0,29.74,SW,226,4.0,4.0,59,0.00,,,0.00,,2013-06-13 01:32:00,
2013-06-12 20:43:00,87.0,71.0,29.73,SW,222,1.0,1.0,59,0.00,,,0.00,,2013-06-13 01:43:00,
2013-06-12 20:53:00,86.0,70.0,29.73,SSW,208,0.0,2.0,60,0.00,,,0.00,,2013-06-13 01:53:00,
2013-06-12 21:02:00,86.0,71.0,29.73,South,189,2.0,2.0,61,0.00,,,0.00,,2013-06-13 02:02:00,
2013-06-12 21:12:00,86.0,71.0,29.73,ESE,109,0.0,1.0,61,0.00,,,0.00,,2013-06-13 02:12:00,
2013-06-12 21:22:00,86.0,71.0,29.73,SE,146,3.0,3.0,61,0.00,,,0.00,,2013-06-13 02:22:00,
2013-06-12 21:33:00,85.0,70.0,29.73,SSE,153,3.0,3.0,61,0.00,,,0.00,,2013-06-13 02:33:00,
2013-06-12 21:43:00,85.0,70.0,29.73,South,180,0.0,1.0,62,0.00,,,0.00,,2013-06-13 02:43:00,
2013-06-12 21:52:00,85.0,70.0,29.73,South,190,3.0,3.0,62,0.00,,,0.00,,2013-06-13 02:52:00,
2013-06-12 22:02:00,85.0,70.0,29.73,ENE,67,0.0,3.0,62,0.00,,,0.00,,2013-06-13 03:02:00,
2013-06-12 22:12:00,84.0,70.0,29.73,SSW,202,3.0,4.0,63,0.00,,,0.00,,2013-06-13 03:12:00,
2013-06-12 22:22:00,84.0,70.0,29.72,SE,135,1.0,8.0,63,0.00,,,0.00,,2013-06-13 03:22:00,
2013-06-12 22:33:00,84.0,70.0,29.72,SSE,166,3.0,8.0,63,0.00,,,0.00,,2013-06-13 03:33:00,
2013-06-12 22:42:00,85.0,71.0,29.71,SSE,161,1.0,5.0,64,0.00,,,0.00,,2013-06-13 03:42:00,
2013-06-12 22:52:00,84.0,70.0,29.72,South,183,0.0,6.0,63,0.00,,,0.00,,2013-06-13 03:52:00,
2013-06-12 23:01:00,84.0,70.0,29.72,SSE,160,1.0,3.0,64,0.00,,,0.00,,2013-06-13 04:01:00,
2013-06-12 23:11:00,84.0,70.0,29.72,SW,217,1.0,2.0,64,0.00,,,0.00,,2013-06-13 04:11:00,
2013-06-12 23:22:00,84.0,71.0,29.74,East,101,0.0,3.0,65,0.00,,,0.00,,2013-06-13 04:22:00,
2013-06-12 23:32:00,84.0,71.0,29.74,SSW,209,2.0,3.0,65,0.00,,,0.00,,2013-06-13 04:32:00,
2013-06-12 23:43:00,84.0,71.0,29.74,South,190,0.0,1.0,65,0.00,,,0.00,,2013-06-13 04:43:00,
2013-06-12 23:53:00,84.0,71.0,29.74,NE,34,2.0,2.0,65,0.00,,,0.00,,2013-06-13 04:53:00,